Theta_e
303 303 303 303 303 303 303 302 302 302 303 303 303 303 303 304 304 305 308 311 307 306 306 307 313 316 316 313 312 311 313 313 313 313 314 314 315 315 315 316 316 321 332 334 334
300 300 300 300 301 302 302 303 303 303 302 301 301 302 303 303 303 307 313 311 308 307 307 306 315 315 314 313 313 314 314 314 314 314 315 314 315 316 316 316 317 319 353 351 348
299 299 299 299 299 299 299 299 300 301 302 302 301 304 305 307 306 310 314 315 316 316 313 306 315 314 315 313 313 314 315 313 312 313 313 314 314 314 315 316 317 317 326 355 354
299 299 299 299 299 299 299 299 299 299 299 300 301 302 308 307 310 309 312 316 316 316 314 307 314 314 315 315 313 314 313 313 313 313 314 314 314 314 315 315 315 315 316 319 356
297 297 298 298 298 299 299 299 299 299 299 299 299 300 306 307 307 308 308 313 315 314 313 309 310 314 316 315 313 313 314 312 313 313 313 313 314 315 314 315 315 315 316 316 320
297 297 297 297 297 298 298 298 298 298 298 298 298 303 305 307 306 307 308 308 311 309 313 311 310 312 314 314 316 315 314 314 313 313 313 313 314 313 314 314 314 315 315 316 316
297 296 297 297 297 297 298 298 299 298 298 298 298 305 306 304 305 307 308 308 312 312 313 313 312 311 313 314 313 313 315 314 314 314 314 312 314 314 313 314 314 315 315 315 316
296 296 296 296 297 297 297 298 299 300 300 299 299 307 306 303 303 303 304 305 309 315 313 314 314 313 314 313 313 315 315 317 317 314 313 313 317 315 314 314 314 314 315 315 316
296 296 295 295 297 297 297 299 299 300 301 303 307 306 306 304 305 307 309 307 306 313 316 315 315 315 314 315 315 315 315 316 316 316 316 314 317 317 315 313 314 315 315 316 316
296 295 295 295 296 297 298 299 300 304 308 307 307 306 305 305 307 308 312 313 310 309 309 309 316 316 316 316 315 315 315 314 316 315 316 316 316 315 315 315 316 316 316 316 316
295 295 295 295 297 298 299 302 300 303 305 305 305 306 304 304 309 312 313 313 312 311 310 309 318 319 318 317 314 315 315 315 315 316 317 318 318 316 317 315 316 316 316 316 316
296 295 295 296 297 300 305 301 300 301 302 301 301 301 303 305 306 306 311 312 313 316 311 311 318 318 316 316 316 315 315 315 315 315 316 317 318 318 317 318 316 317 317 316 316
296 295 296 296 299 304 306 302 301 301 303 302 302 302 303 304 304 306 306 307 313 314 313 314 315 314 318 317 317 317 316 315 315 314 315 315 317 316 316 316 315 316 317 317 317
296 295 296 296 303 306 306 304 301 301 304 302 307 307 307 310 309 310 310 307 307 312 314 314 314 315 316 318 317 318 317 315 315 316 316 315 317 318 317 317 318 317 317 317 317
295 295 296 299 305 305 305 303 302 304 304 303 307 310 311 312 310 310 313 311 312 311 313 314 314 314 316 318 317 318 316 316 314 315 315 315 316 318 317 318 318 319 319 318 317
296 296 296 304 305 304 305 303 303 308 306 306 307 307 308 307 308 308 314 313 314 314 313 313 312 317 315 318 317 317 316 316 315 315 316 317 316 317 317 318 319 322 326 327 326
296 297 300 304 304 306 306 304 307 307 305 305 306 307 310 309 310 309 312 315 316 318 318 316 315 315 317 317 318 317 316 316 316 316 316 317 316 318 317 318 319 325 331 334 335
297 297 303 301 301 304 305 306 307 304 304 305 310 309 311 310 311 312 312 313 315 314 315 315 318 315 318 318 319 317 317 316 316 316 316 314 317 317 317 317 323 331 332 331 332
297 298 303 298 300 304 304 307 306 307 306 310 308 311 311 311 312 312 312 313 312 314 316 316 320 318 317 319 319 318 316 315 317 316 316 315 316 317 320 327 333 331 330 330 329
297 298 300 299 302 303 305 305 307 303 305 306 310 312 312 312 312 314 314 313 314 315 315 317 322 317 316 320 320 318 317 316 318 318 317 317 318 319 326 330 332 331 330 327 327
297 297 299 299 299 301 303 302 302 302 303 308 311 311 312 312 313 315 314 313 313 314 315 317 319 318 319 319 321 320 318 316 317 320 320 322 319 326 326 330 332 331 328 326 325
297 299 298 299 299 299 301 300 300 303 304 306 309 310 310 311 315 313 313 314 312 314 316 317 318 319 321 318 320 320 319 317 321 321 320 322 326 327 327 331 331 328 326 325 324
297 297 297 298 299 300 300 300 301 304 303 307 307 308 309 310 315 313 314 312 312 312 316 317 318 319 322 318 319 322 319 319 318 320 323 322 331 324 326 329 326 325 324 322 323
297 299 298 298 298 299 300 301 302 301 303 303 305 307 308 307 310 312 312 312 310 312 315 316 317 317 318 317 316 323 319 318 318 321 322 321 330 327 327 326 326 325 322 322 321
297 298 298 299 299 299 300 301 302 302 303 302 307 307 306 308 307 311 311 310 310 313 316 316 321 318 318 316 316 323 320 319 319 319 321 321 326 329 328 325 325 322 321 320 318
298 298 297 298 298 299 300 300 301 302 302 302 305 305 304 306 307 308 310 309 311 312 311 310 318 319 320 322 323 324 322 320 321 321 322 322 325 328 325 323 322 320 319 319 317
299 298 298 299 299 299 300 300 301 302 301 302 302 303 306 306 306 306 306 307 308 310 310 311 313 316 323 324 324 325 323 322 321 321 323 326 327 326 324 323 322 320 320 318 315
Wind_Speed
22 22 23 23 20 18 17 17 18 18 19 19 19 20 21 22 25 28 33 20 17 17 20 16 13 15 21 14 12 9 7 12 14 13 11 3 7 6 6 6 4 2 9 9 11
25 25 26 26 24 24 24 23 22 20 19 20 21 21 21 23 26 33 31 30 23 19 29 24 18 22 12 12 10 11 9 15 6 14 8 4 8 6 3 5 3 2 6 3 9
27 28 29 28 28 29 28 26 26 26 25 23 22 19 16 16 25 6 3 8 9 12 18 25 16 18 16 11 14 11 17 11 10 17 17 14 12 6 6 10 10 0 6 3 11
27 26 26 27 29 30 30 30 29 27 26 26 25 22 13 11 8 3 6 6 3 12 17 29 19 11 10 13 17 11 13 16 11 17 10 12 11 7 15 19 6 6 9 4 11
28 27 27 27 27 26 26 28 29 30 30 29 24 22 13 11 28 22 22 17 14 10 21 28 30 21 15 12 12 18 13 15 25 18 17 11 13 10 11 17 15 18 19 14 12
27 28 29 30 30 30 30 30 28 29 29 27 26 15 11 17 20 5 15 26 25 24 23 25 18 25 16 10 21 6 22 22 18 21 19 18 22 18 12 20 22 20 19 15 12
30 31 32 32 32 32 33 33 33 33 31 30 27 17 22 44 26 16 13 11 14 19 22 25 13 21 12 5 23 11 11 12 19 23 15 7 21 21 20 27 26 22 22 19 14
31 31 32 33 32 33 35 38 30 30 32 31 25 16 19 22 29 34 30 30 22 23 24 19 22 17 8 6 3 12 18 20 14 12 11 20 22 3 28 31 30 24 23 22 21
32 33 35 37 37 37 41 31 31 15 19 19 10 14 15 16 14 8 12 20 22 27 24 16 8 16 14 12 10 13 15 19 15 20 13 20 10 15 20 19 24 23 24 22 21
36 37 39 40 42 43 40 37 11 12 5 7 5 6 13 12 11 6 5 10 6 17 22 16 12 12 15 19 21 19 23 14 17 13 23 22 17 3 10 18 17 18 18 18 19
40 40 41 43 46 41 34 34 15 3 4 12 19 25 32 30 10 9 7 12 7 12 13 24 12 26 45 31 15 10 17 22 15 11 17 27 22 17 14 12 15 17 17 19 18
41 40 40 43 42 29 29 14 5 9 18 24 36 38 44 30 23 32 10 9 13 15 16 14 28 35 14 21 22 17 17 17 12 18 14 13 22 21 21 20 21 21 20 19 18
40 39 39 43 32 26 18 14 5 14 8 19 10 15 13 11 13 18 23 33 17 17 23 23 26 24 24 19 25 26 20 13 6 11 18 5 16 15 15 18 20 23 21 20 22
39 38 39 39 14 24 14 17 12 14 5 7 5 5 5 6 7 9 11 15 20 21 19 22 28 17 31 29 26 26 25 15 13 13 10 11 5 13 20 18 17 22 21 22 23
39 38 38 25 20 21 21 18 11 1 7 2 2 4 1 6 14 3 12 17 13 21 15 28 23 24 22 28 25 23 17 22 16 9 5 9 6 9 9 17 17 18 21 21 25
39 37 35 12 18 24 20 14 3 4 8 6 1 10 10 15 13 9 10 6 3 9 16 28 25 19 27 23 23 13 17 20 17 10 10 18 12 7 10 17 14 10 12 13 14
40 37 17 16 21 21 15 8 4 5 9 5 10 17 19 18 18 9 13 10 7 5 6 8 28 25 21 29 24 22 22 9 11 10 12 19 12 13 8 9 12 13 14 13 12
42 32 11 21 23 16 9 3 7 6 10 17 14 25 17 15 3 8 9 10 6 3 4 4 8 28 24 20 18 30 26 10 14 16 18 6 13 8 23 7 1 15 17 15 14
42 22 17 31 26 13 4 3 4 7 9 10 20 11 6 2 8 9 8 15 12 15 8 4 7 12 23 22 26 30 23 14 6 10 10 9 4 3 10 8 11 16 18 17 16
37 16 23 30 19 11 2 7 4 16 8 7 5 4 8 8 4 3 4 4 7 14 13 4 5 3 26 27 20 26 28 15 6 11 10 12 16 5 12 13 13 15 17 18 21
27 10 23 25 14 9 5 7 15 23 23 5 7 8 5 5 3 3 5 13 7 13 9 7 5 5 13 20 21 9 18 15 10 3 6 7 8 3 7 16 18 16 20 21 24
15 4 22 23 10 5 8 13 22 13 20 7 9 3 4 6 5 4 4 3 16 11 6 4 2 4 6 9 15 21 27 26 14 10 2 3 4 2 6 13 16 19 22 22 25
16 6 15 18 8 10 14 14 13 12 17 5 5 4 9 9 6 6 7 8 13 13 5 3 2 3 3 5 10 20 22 24 19 4 8 6 5 4 10 16 18 24 25 27 29
10 5 8 7 18 12 19 10 14 25 14 22 11 7 16 15 4 10 13 7 26 17 20 4 3 6 5 5 3 15 23 29 16 9 10 5 10 8 14 19 18 24 26 28 29
9 3 4 8 11 16 17 10 21 14 7 18 6 14 19 7 20 6 11 17 10 13 4 2 5 7 11 11 14 25 23 24 20 18 11 10 7 14 16 19 22 29 30 30 28
7 6 7 11 16 16 11 10 18 19 12 14 9 26 21 16 17 24 18 5 6 6 7 10 3 3 6 10 17 26 22 23 17 13 11 14 8 12 18 23 24 29 32 31 27
18 17 9 11 8 11 9 18 21 22 14 17 21 21 19 18 16 23 24 19 15 12 5 3 3 4 2 1 15 19 25 17 22 17 10 10 8 19 19 20 24 30 32 32 29
Wind_Direction
356 353 348 347 344 340 335 329 324 319 314 312 308 306 303 302 299 293 282 279 264 247 247 233 217 194 183 185 187 176 228 232 223 203 231 128 209 211 191 248 311 216 270 274 265
354 351 348 346 344 341 338 335 330 324 318 314 310 309 307 307 302 287 289 273 263 243 233 211 192 176 173 184 189 198 226 225 223 225 248 210 199 159 248 269 237 68 0 194 210
353 351 348 345 343 342 340 335 331 327 325 321 316 310 315 317 312 303 34 121 174 229 227 197 192 170 189 181 190 210 233 220 216 227 241 248 244 244 236 270 236 198 36 144 180
349 346 342 339 338 336 333 331 329 325 320 317 316 318 310 308 293 291 229 203 214 209 204 185 174 186 199 199 200 235 231 226 228 231 225 236 250 233 225 237 184 272 310 308 201
349 346 342 339 336 331 326 323 320 316 313 311 309 306 305 267 251 265 259 239 238 230 201 189 186 194 201 210 207 231 230 218 233 239 231 233 235 237 225 246 252 269 282 283 232
348 344 342 341 338 334 329 325 318 310 304 300 300 293 268 262 283 276 244 236 241 249 224 199 204 202 209 209 209 230 224 234 236 237 240 246 254 243 235 257 261 262 262 268 250
349 346 344 342 340 335 331 326 320 311 299 293 286 264 244 249 262 266 244 224 237 226 219 219 220 189 202 205 230 216 229 232 237 235 239 208 255 239 233 241 250 252 258 255 246
349 347 345 341 341 338 332 329 324 309 292 288 275 237 249 265 277 264 259 249 231 222 212 207 209 229 210 213 125 217 239 242 207 196 218 201 244 197 222 222 239 244 246 245 244
348 349 348 343 345 342 336 334 327 303 287 283 209 207 268 285 275 292 256 249 238 215 209 202 200 211 208 213 212 205 226 225 230 213 205 199 257 240 232 201 224 231 234 238 236
350 349 347 342 342 341 337 339 337 321 34 85 131 198 251 251 281 266 256 210 179 199 219 217 204 200 213 203 215 210 215 209 206 189 213 212 231 233 178 202 218 234 227 233 234
349 347 346 341 341 341 339 349 337 310 232 255 261 252 265 261 271 251 259 181 159 167 186 190 199 208 207 206 234 225 205 215 206 193 195 218 222 222 228 229 238 238 241 233 227
347 345 343 337 342 348 348 1 338 308 298 270 267 261 260 263 277 257 234 197 192 208 193 176 218 221 218 216 222 229 214 213 203 217 207 222 233 223 233 241 235 228 231 237 231
344 344 340 338 342 354 355 350 309 334 278 299 247 249 266 209 224 272 211 227 229 233 207 202 226 218 205 208 210 220 218 197 168 180 210 239 241 219 219 220 218 227 230 232 232
343 343 338 337 349 351 348 332 308 320 290 274 236 262 192 182 225 264 214 192 212 234 228 232 233 196 210 212 203 216 216 217 199 193 189 199 251 215 208 211 207 207 216 226 227
343 344 337 333 338 350 333 332 320 236 296 55 242 94 145 210 313 237 203 176 230 210 199 229 225 227 234 212 206 223 186 205 212 206 194 184 234 228 200 215 209 206 213 224 227
343 343 332 332 337 332 328 326 311 253 253 310 295 347 330 308 283 276 183 196 197 210 246 256 252 222 214 201 203 200 179 193 209 228 237 211 208 212 205 218 203 176 185 198 200
344 345 339 345 335 336 325 320 258 234 329 320 332 329 318 301 305 251 230 201 227 217 215 247 242 241 214 213 194 199 166 155 185 197 216 208 201 225 233 228 212 183 155 153 149
346 343 3 360 350 344 330 242 241 288 298 314 318 315 298 296 292 339 318 282 215 182 273 265 242 221 211 197 183 192 182 174 174 188 204 155 212 223 221 208 138 135 139 138 143
349 5 18 359 349 342 334 264 305 345 318 306 310 281 280 246 346 326 284 271 258 193 206 247 226 272 209 215 172 192 195 194 135 184 162 177 197 230 185 146 134 128 130 135 137
352 2 8 356 355 340 291 324 303 325 306 287 282 291 302 312 266 262 290 311 321 205 214 251 281 260 208 191 217 185 196 203 217 168 179 192 206 156 174 166 151 144 134 124 127
357 356 360 7 7 8 17 315 315 319 318 300 300 288 292 318 251 293 307 304 15 320 212 269 251 203 173 220 193 205 191 203 208 229 183 155 199 117 173 166 159 149 138 132 129
357 350 355 6 26 355 345 323 305 315 330 296 288 313 347 297 299 292 260 269 322 343 271 240 236 259 224 183 242 202 192 195 189 195 192 188 128 27 133 151 149 135 126 126 122
341 303 351 13 14 350 336 323 330 333 324 322 298 345 349 329 307 297 301 294 338 340 295 220 236 292 182 107 244 194 195 198 199 156 192 167 128 101 130 133 132 126 125 125 128
352 340 335 355 355 336 334 329 332 331 305 334 290 292 339 324 314 299 293 313 331 315 299 249 245 245 263 267 282 181 192 194 193 190 170 155 134 143 141 140 138 132 130 135 136
3 343 298 320 335 329 327 305 331 342 317 319 282 316 331 300 310 254 307 316 310 355 1 299 271 257 261 255 253 184 184 174 187 200 199 166 138 164 160 154 146 136 133 138 135
353 336 297 290 311 323 336 328 321 323 321 303 294 308 306 288 279 288 290 298 283 348 7 343 280 306 289 266 195 181 181 186 183 171 138 187 158 144 139 138 134 137 139 142 137
345 329 284 291 322 330 327 322 310 322 305 289 298 304 299 295 284 281 275 268 261 283 317 290 311 337 297 346 147 175 176 181 192 204 170 160 143 143 147 149 148 147 148 143 137